Greenville, ME

4:36 PM EDT on May 28, 2017 (GMT -0400)
Greenville

Weather History for KGNR - March, 2013

Change the Weather History Date:

Tuesday, March 5, 2013

  Actual Average (KMLT) Record (KMLT)
Temperature  
Mean Temperature 33 °F -  
Max Temperature 36 °F 31 °F 54 °F (1965)
Min Temperature 30 °F 10 °F -16 °F (1904)
Degree Days  
Heating Degree Days 32    
Moisture  
Dew Point 29 °F    
Average Humidity 88    
Maximum Humidity 92    
Minimum Humidity 78    
Precipitation  
Precipitation 0.02 in - - ()
Sea Level Pressure  
Sea Level Pressure 29.96 in    
Wind  
Wind Speed 9 mph (North)    
Max Wind Speed 14 mph    
Max Gust Speed 22 mph    
Averages and records for this station are not official NWS values.
T = Trace of Precipitation, MM = Missing Value Source: NWS Daily Summary

Daily Weather History Graph

Daily Weather History Graph

Search for Another Location

Airport or City:

Trip Planner

Search our weather history database for the weather conditions in past years. The results will help you decide how hot, cold, wet, or windy it might be!

Date:

Astronomy

Mar. 05, 2013 Rise Set
Actual Time 6:09 AM EST 5:31 PM EST
Civil Twilight 5:39 AM EST 6:00 PM EST
Nautical Twilight 5:05 AM EST 6:35 PM EST
Astronomical Twilight 4:30 AM EST 7:09 PM EST
Moon 1:30 AM EST (3/5) 10:53 AM EST (3/5)
Length of Visible Light 12h 21m
Length of Day
11h 22m
Last Quarter, 41% of the Moon is Illuminated
Mar 5
Last Quarter
Mar 11
New
Mar 19
First Quarter
Mar 27
Full
Apr 3
Last Quarter

Hourly Weather History & Observations

Time (EST) Temp. Windchill Dew Point Humidity Pressure Visibility Wind Dir Wind Speed Gust Speed Precip Events Conditions
12:56 AM 30.9 °F 24.3 °F 28.9 °F 92% 29.73 in - NNW 6.9 mph - N/A   Unknown
1:56 AM 30.0 °F 24.1 °F 28.0 °F 92% 29.75 in - NNW 5.8 mph - N/A   Unknown
2:56 AM 30.0 °F 20.5 °F 28.0 °F 92% 29.78 in - North 11.5 mph - N/A   Unknown
3:56 AM 30.0 °F 25.2 °F 28.0 °F 92% 29.81 in - Variable 4.6 mph - N/A   Unknown
4:56 AM 30.0 °F 20.0 °F 27.0 °F 88% 29.83 in - North 12.7 mph 19.6 mph N/A   Unknown
5:56 AM 30.0 °F 20.5 °F 27.0 °F 88% 29.86 in - North 11.5 mph - N/A   Unknown
6:56 AM 30.0 °F 21.7 °F 28.0 °F 92% 29.89 in - North 9.2 mph - N/A   Unknown
7:56 AM 30.9 °F 22.2 °F 28.9 °F 92% 29.91 in - North 10.4 mph - 0.01 in   Unknown
8:56 AM 32.0 °F 24.2 °F 28.9 °F 88% 29.93 in - NNW 9.2 mph - N/A   Unknown
9:56 AM 33.1 °F 23.4 °F 28.9 °F 85% 29.94 in - North 13.8 mph - N/A   Unknown
10:56 AM 33.1 °F 23.4 °F 28.9 °F 85% 29.94 in - North 13.8 mph 21.9 mph N/A   Unknown
11:56 AM 35.1 °F 27.9 °F 28.9 °F 78% 29.96 in - North 9.2 mph 19.6 mph N/A   Unknown
12:56 PM 35.1 °F 27.9 °F 30.0 °F 82% 29.97 in - North 9.2 mph - N/A   Unknown
1:56 PM 35.1 °F 26.9 °F 28.9 °F 78% 29.99 in - NNE 11.5 mph - N/A   Unknown
2:56 PM 36.0 °F 28.0 °F 30.0 °F 79% 30.00 in - North 11.5 mph - N/A   Unknown
3:56 PM 34.0 °F 28.0 °F 30.9 °F 89% 30.02 in - North 6.9 mph - N/A   Unknown
4:56 PM 34.0 °F 26.6 °F 30.9 °F 89% 30.04 in - North 9.2 mph - N/A   Unknown
5:56 PM 34.0 °F 26.0 °F 30.9 °F 89% 30.06 in - North 10.4 mph - N/A   Unknown
6:56 PM 33.1 °F 26.1 °F 30.9 °F 92% 30.08 in - North 8.1 mph - 0.01 in   Unknown
7:56 PM 32.0 °F 23.0 °F 28.0 °F 85% 30.10 in - ENE 11.5 mph 19.6 mph N/A   Unknown
8:56 PM 32.0 °F 24.2 °F 28.0 °F 85% 30.12 in - NE 9.2 mph - N/A   Unknown
9:56 PM 30.9 °F 24.3 °F 28.0 °F 89% 30.12 in - NE 6.9 mph - N/A   Unknown
10:56 PM 30.9 °F 25.2 °F 28.0 °F 89% 30.14 in - ENE 5.8 mph - N/A   Unknown
11:56 PM 30.0 °F 24.1 °F 28.0 °F 92% 30.16 in - East 5.8 mph - N/A   Unknown